Retour au catalogue

STARLINK-6177

ActifCommunicationsVLEO
NORAD 56880·PAYLOAD·🇺🇸 United States

Lancé Jun 12, 2023 depuis Cape Canaveral Space Force Station

Loading…

Prochains Passages (prochaines 24 heures)

TLE

FraisSource: CelesTrak SupGP

Époque: Sep 14, 2026, 21:59 UTC

1 56880C 23083E   26257.91645833  .00018662  00000+0  67605-3 0  2570
2 56880  43.0026  96.5296 0001353 274.6046 329.2268 15.27564555    10

Suivez STARLINK-6177 en temps réel avec AllMySat

Download on the App Store